Temp
9 9 9 9 9 9 8 6 5 5 5 5 5 4 4 4 4 3 1 2 1 2 2 2 3 3 3 3 3 3 2 2 2 1 1 1 1 1
9 9 9 9 9 9 7 6 6 5 5 5 4 4 4 3 3 3 2 2 1 2 2 3 3 3 3 3 3 3 2 1 1 1 1 1 1 1
8 8 9 9 9 9 8 7 6 6 5 4 3 3 5 3 3 2 2 2 2 2 2 3 3 3 3 3 2 2 1 1 1 0 0 0 0 0
7 7 8 9 9 9 7 6 6 6 5 4 3 4 4 3 2 1 2 2 1 2 2 2 2 3 2 2 2 1 1 0 0 0 0 0 0 -0
7 7 7 8 8 8 6 6 6 6 5 3 3 3 4 2 2 1 2 1 1 1 1 1 2 2 2 2 1 0 -0 -0 -0 -0 -0 -0 -0 -0
7 7 7 7 8 7 6 6 5 5 5 4 4 4 4 3 2 2 1 1 0 1 1 1 1 1 1 1 0 -0 -1 -1 -1 -1 -1 -1 -1 -1
7 7 7 7 7 7 6 6 5 5 5 4 4 3 3 3 3 2 1 1 0 0 0 1 1 0 -0 0 -1 -1 -1 -1 -1 -1 -1 -1 -1 -1
6 7 7 7 7 7 6 6 5 5 4 4 3 3 3 2 1 0 1 1 -0 -0 0 0 -0 -1 -1 -1 -1 -1 -2 -2 -2 -2 -1 -1 -1 -1
6 6 6 7 7 6 5 5 5 4 4 4 3 2 3 1 1 0 0 -1 -1 -0 -0 -1 -1 -1 -2 -2 -2 -2 -2 -2 -2 -2 -2 -2 -2 -2
5 5 5 5 5 5 4 4 4 3 3 3 3 2 2 1 0 -0 -0 -1 -1 -0 -1 -1 -2 -2 -3 -2 -3 -3 -3 -3 -3 -3 -3 -2 -2 -2
5 4 4 3 4 4 3 4 3 2 3 2 3 2 2 1 -1 -2 -1 -1 -2 -1 -2 -2 -3 -3 -3 -3 -3 -3 -3 -3 -3 -3 -3 -3 -2 -2
4 4 4 4 3 3 3 3 3 3 2 3 2 2 2 -1 -1 -1 -1 -3 -2 -2 -3 -3 -4 -3 -3 -4 -4 -4 -4 -4 -4 -3 -3 -3 -3 -3
3 4 3 2 2 3 3 3 2 3 1 3 2 2 -0 -2 -1 -2 -3 -2 -3 -3 -3 -4 -4 -4 -4 -5 -5 -5 -4 -4 -4 -4 -4 -4 -4 -4
3 3 2 2 3 2 2 2 2 2 2 1 0 -1 -1 -1 -2 -3 -3 -3 -4 -4 -4 -4 -4 -5 -5 -5 -5 -5 -5 -5 -6 -6 -6 -5 -5 -5
3 3 2 1 1 2 2 2 2 1 1 0 -1 -1 -2 -3 -3 -3 -3 -4 -4 -5 -5 -5 -5 -6 -6 -6 -6 -6 -7 -7 -7 -7 -7 -8 -7 -7
2 2 1 0 1 1 2 1 1 -1 -1 -2 -2 -2 -3 -3 -3 -3 -5 -5 -5 -5 -5 -6 -6 -6 -7 -7 -7 -8 -8 -8 -9 -9 -9 -9 -9 -9
1 2 1 -0 1 1 1 -1 -1 -1 -2 -3 -3 -3 -4 -4 -3 -5 -5 -6 -6 -6 -6 -7 -7 -7 -7 -8 -8 -9 -9 -9 -10 -10 -11 -11 -11 -11
-0 0 0 0 1 0 -1 -1 -1 -1 -3 -3 -4 -4 -5 -5 -5 -6 -6 -6 -7 -7 -7 -7 -8 -8 -8 -9 -9 -10 -10 -10 -11 -11 -12 -12 -11 -12
-1 -2 -1 -0 -1 -1 -2 -2 -3 -3 -3 -4 -5 -5 -5 -6 -6 -6 -7 -7 -7 -7 -8 -8 -8 -9 -9 -10 -10 -10 -10 -11 -12 -12 -12 -12 -12 -11
-2 -2 -1 -1 -1 -3 -2 -3 -4 -4 -4 -5 -6 -6 -7 -7 -7 -7 -7 -7 -8 -8 -8 -9 -9 -9 -10 -10 -10 -10 -11 -12 -12 -12 -12 -12 -12 -12
-2 -3 -2 -1 -2 -2 -4 -4 -4 -5 -6 -6 -7 -7 -8 -7 -7 -7 -8 -8 -8 -9 -9 -9 -10 -10 -10 -11 -11 -11 -12 -13 -13 -13 -13 -13 -12 -12
-2 -2 -2 -2 -3 -3 -4 -5 -6 -6 -6 -7 -8 -8 -7 -7 -8 -8 -8 -9 -9 -9 -9 -10 -10 -11 -11 -11 -11 -12 -13 -14 -14 -14 -14 -13 -13 -13
-5 -3 -4 -4 -5 -5 -5 -6 -7 -7 -7 -9 -9 -8 -8 -8 -8 -8 -9 -9 -9 -10 -10 -10 -11 -11 -11 -11 -12 -13 -14 -14 -14 -14 -14 -14 -13 -13
Height
3124 3122 3122 3122 3123 3123 3122 3122 3123 3121 3121 3122 3123 3123 3123 3122 3119 3116 3113 3109 3106 3104 3100 3095 3090 3085 3080 3075 3070 3066 3062 3057 3054 3050 3046 3042 3037 3030
3113 3111 3111 3112 3112 3113 3113 3113 3112 3112 3110 3112 3112 3113 3112 3111 3110 3108 3105 3101 3099 3096 3092 3087 3082 3076 3072 3067 3062 3058 3055 3051 3047 3042 3038 3034 3029 3022
3101 3101 3100 3102 3101 3102 3103 3103 3103 3103 3102 3100 3098 3097 3101 3100 3101 3098 3096 3094 3090 3088 3084 3079 3075 3069 3065 3060 3055 3051 3046 3042 3038 3034 3030 3024 3019 3013
3091 3093 3090 3091 3091 3091 3091 3094 3093 3092 3091 3084 3083 3091 3090 3091 3092 3089 3086 3085 3083 3080 3075 3071 3066 3061 3057 3052 3048 3042 3037 3034 3029 3025 3021 3016 3010 3004
3081 3079 3081 3081 3080 3079 3081 3082 3082 3082 3079 3067 3074 3082 3081 3081 3079 3081 3078 3076 3074 3071 3068 3064 3058 3054 3048 3044 3039 3034 3029 3025 3022 3016 3012 3008 3002 2996
3069 3069 3070 3070 3070 3069 3070 3072 3072 3073 3071 3064 3070 3072 3073 3072 3072 3071 3069 3068 3065 3062 3059 3055 3050 3044 3039 3035 3030 3026 3022 3017 3014 3009 3004 2999 2993 2988
3058 3058 3060 3060 3060 3060 3060 3062 3063 3063 3063 3063 3063 3064 3064 3063 3062 3062 3060 3058 3056 3053 3051 3045 3041 3036 3031 3026 3022 3018 3013 3010 3005 3002 2996 2990 2983 2978
3045 3047 3048 3049 3049 3049 3050 3051 3053 3053 3053 3054 3054 3054 3054 3053 3052 3050 3049 3049 3046 3045 3042 3037 3033 3027 3024 3020 3015 3010 3006 3002 2998 2994 2988 2982 2975 2970
3034 3035 3035 3036 3037 3037 3039 3040 3041 3042 3042 3042 3043 3043 3042 3041 3039 3040 3039 3038 3038 3035 3034 3029 3026 3022 3018 3012 3007 3003 2999 2995 2990 2986 2980 2974 2966 2960
3023 3024 3024 3025 3024 3026 3027 3027 3029 3030 3031 3031 3031 3031 3032 3028 3029 3026 3029 3030 3030 3028 3024 3021 3019 3014 3011 3007 3002 2998 2992 2987 2983 2979 2973 2966 2958 2952
3011 3012 3012 3015 3014 3015 3016 3016 3016 3017 3018 3019 3018 3019 3016 3014 3013 3017 3019 3018 3020 3018 3015 3013 3010 3007 3003 3000 2996 2992 2986 2981 2976 2971 2964 2957 2950 2943
2999 3000 3000 3001 3004 3003 3004 3005 3005 3006 3004 3006 3008 3006 3005 3001 3006 3008 3010 3011 3009 3010 3008 3006 3003 3000 2997 2993 2989 2985 2980 2974 2969 2962 2956 2950 2942 2935
2987 2987 2988 2990 2990 2991 2994 2994 2996 2995 2995 2993 2993 2992 2992 2994 2996 2998 3000 3003 3002 3000 2997 2998 2998 2994 2992 2988 2983 2980 2975 2969 2962 2956 2950 2943 2935 2929
2976 2977 2977 2980 2981 2982 2983 2983 2985 2983 2986 2980 2973 2976 2983 2984 2991 2995 2996 2993 2997 2994 2993 2993 2991 2988 2985 2983 2979 2974 2968 2962 2954 2949 2943 2935 2928 2924
2965 2965 2965 2968 2970 2971 2972 2972 2973 2973 2979 2976 2977 2978 2978 2981 2985 2990 2990 2987 2988 2989 2988 2987 2985 2982 2980 2977 2973 2969 2963 2958 2951 2945 2940 2933 2926 2921
2953 2953 2955 2957 2960 2961 2961 2962 2966 2970 2972 2969 2972 2971 2976 2978 2979 2981 2983 2983 2983 2984 2983 2982 2980 2977 2975 2973 2969 2964 2960 2954 2948 2944 2939 2934 2927 2920
2941 2942 2944 2947 2949 2951 2952 2955 2959 2962 2959 2961 2964 2965 2970 2973 2972 2975 2977 2979 2979 2979 2979 2977 2976 2973 2971 2969 2965 2961 2957 2953 2949 2946 2944 2940 2932 2924
2930 2932 2935 2938 2940 2941 2942 2949 2951 2952 2953 2954 2957 2961 2965 2966 2966 2971 2974 2976 2975 2974 2975 2974 2972 2969 2966 2965 2963 2959 2956 2953 2951 2949 2948 2947 2943 2939
2922 2923 2926 2929 2932 2934 2935 2937 2940 2942 2945 2950 2953 2957 2960 2960 2961 2965 2970 2971 2971 2970 2970 2969 2967 2965 2963 2962 2961 2957 2955 2954 2953 2952 2952 2952 2949 2948
2912 2915 2917 2919 2923 2927 2932 2933 2937 2938 2940 2945 2950 2953 2955 2958 2960 2961 2964 2967 2967 2966 2965 2964 2963 2961 2960 2960 2958 2955 2954 2954 2953 2954 2954 2954 2953 2952
2901 2906 2909 2910 2915 2919 2924 2929 2933 2935 2936 2941 2945 2947 2950 2955 2959 2961 2963 2962 2961 2961 2961 2960 2958 2959 2958 2957 2957 2955 2954 2953 2954 2954 2955 2956 2956 2955
2890 2896 2901 2903 2906 2912 2917 2922 2925 2928 2932 2937 2941 2947 2949 2952 2956 2958 2958 2959 2959 2957 2956 2957 2956 2956 2956 2957 2957 2955 2954 2953 2953 2954 2955 2956 2957 2956
2882 2885 2890 2888 2898 2904 2910 2915 2919 2924 2930 2934 2941 2946 2946 2950 2952 2954 2955 2957 2957 2955 2954 2955 2953 2955 2956 2957 2956 2955 2954 2954 2954 2955 2956 2956 2957 2957
Wind_Speed
40 42 42 40 41 41 44 46 44 44 42 37 33 32 35 41 39 38 35 37 36 37 39 42 43 42 42 40 40 42 41 39 37 36 37 38 40 42
43 44 43 40 44 42 44 47 48 47 44 40 35 35 37 43 42 39 35 39 37 38 41 43 43 43 41 42 43 43 41 39 37 36 37 38 41 43
43 42 42 41 41 41 39 45 49 51 46 42 29 32 34 38 42 36 35 38 36 38 43 42 42 41 42 42 42 43 41 39 37 36 37 39 40 43
41 42 41 40 39 40 41 42 46 48 47 53 40 37 40 37 40 35 36 35 35 39 43 42 42 43 42 43 43 43 40 38 37 36 37 40 42 44
41 40 42 42 43 41 37 40 42 44 49 52 34 36 41 39 37 36 33 34 37 39 43 44 42 41 42 44 42 41 39 36 35 36 38 40 42 45
41 43 42 41 41 40 37 38 38 40 46 36 40 38 41 41 35 35 33 36 37 40 41 43 42 42 43 42 41 40 38 35 33 35 37 39 42 45
45 44 43 40 39 37 38 38 40 42 43 42 42 42 42 43 37 37 35 36 39 38 39 42 39 39 39 40 40 39 38 34 33 35 37 39 43 46
46 46 44 44 42 40 39 41 39 42 42 42 43 43 42 40 40 36 39 36 37 37 38 38 36 37 37 38 38 37 34 33 34 35 37 40 45 46
50 47 48 47 44 42 41 41 45 46 48 46 43 41 40 39 40 40 41 33 34 36 38 34 32 34 35 35 34 33 34 34 35 37 38 41 44 46
47 47 45 44 44 39 38 40 46 45 45 46 48 46 49 46 47 38 32 34 33 36 34 31 29 30 31 32 32 32 34 35 37 39 40 42 45 47
47 43 45 39 46 43 45 41 45 43 46 53 48 51 50 50 35 30 38 40 33 31 30 29 28 27 28 30 31 31 33 35 38 40 42 44 46 46
46 44 44 45 35 38 40 37 43 51 45 49 47 53 53 37 31 33 40 26 28 35 30 28 27 26 26 26 29 29 32 36 38 41 43 45 44 42
38 38 39 40 38 39 41 44 40 51 44 52 52 53 41 28 34 36 22 25 25 27 25 25 25 24 24 24 28 31 33 35 38 40 42 42 42 39
38 38 37 37 38 40 37 45 43 49 52 60 50 32 28 35 31 19 24 20 22 22 22 23 23 23 23 25 26 29 32 35 36 37 39 41 39 31
37 38 37 40 40 40 44 46 52 51 46 35 35 37 39 24 16 22 20 19 18 20 21 20 21 21 23 26 27 28 29 30 32 32 32 33 30 23
37 37 35 36 38 41 48 40 43 27 17 24 31 32 21 13 18 20 18 16 17 18 18 18 19 21 23 25 26 25 25 25 24 26 25 28 32 17
38 36 35 34 37 38 38 36 28 18 25 29 30 21 21 23 21 14 13 15 14 14 15 16 18 20 22 22 21 20 19 19 17 18 20 22 25 12
36 35 34 33 34 35 23 28 21 27 26 18 18 19 20 19 11 11 12 12 11 12 14 15 17 17 17 16 16 15 15 14 12 12 15 16 18 22
36 33 32 32 28 28 28 25 31 24 20 21 20 18 18 12 12 11 10 10 9 11 13 14 13 13 12 12 13 13 12 9 5 6 8 11 11 10
33 33 32 29 29 30 37 32 29 26 23 22 21 17 14 14 11 9 9 9 9 10 10 9 9 10 11 11 12 12 10 8 4 1 3 6 8 8
29 31 33 28 29 30 33 28 24 19 17 23 20 16 15 12 10 9 8 6 6 6 6 7 8 8 9 10 10 9 7 4 2 1 1 2 4 6
28 30 34 33 29 30 30 26 22 23 25 23 18 17 15 12 10 6 5 4 4 5 6 6 6 6 7 6 6 5 3 1 1 2 2 2 2 3
31 30 35 28 28 29 27 25 26 26 25 20 17 15 12 10 8 5 4 3 2 2 3 3 4 4 4 4 4 4 3 2 2 3 3 3 3 2
Wind_Direction
275 271 265 263 261 262 259 261 265 267 268 272 272 276 289 287 286 289 299 295 296 298 307 311 315 316 318 317 318 315 312 308 303 301 302 305 309 311
272 268 264 262 263 263 261 259 260 263 266 268 267 269 276 283 285 289 289 293 295 301 308 312 313 317 318 318 314 312 310 307 301 299 300 305 308 311
269 267 264 262 266 260 261 259 260 262 263 262 256 293 282 279 289 290 278 291 293 299 307 309 312 314 314 313 312 309 308 303 298 297 299 303 308 309
273 269 269 266 267 268 263 262 262 263 260 255 276 292 284 279 280 293 284 288 290 300 306 307 309 311 312 312 310 307 304 300 296 296 300 307 310 313
267 267 268 269 271 270 266 263 264 263 266 268 280 278 285 285 275 279 282 288 290 302 305 305 308 309 310 310 307 305 302 299 299 301 304 307 309 312
264 265 265 268 270 269 262 262 261 266 267 263 272 274 279 274 277 272 283 290 288 299 302 303 306 309 308 307 306 305 304 302 299 300 303 306 308 309
262 264 266 269 270 264 260 262 264 267 264 261 267 273 277 274 281 270 277 283 285 294 299 299 304 304 306 306 305 305 303 301 300 302 304 306 307 309
266 268 268 269 268 265 259 259 261 265 264 263 264 267 272 265 270 273 268 276 282 294 297 298 302 304 303 302 303 302 300 301 302 304 305 307 309 310
266 269 271 270 268 265 260 261 263 264 266 265 271 265 253 268 257 270 264 272 286 294 294 298 299 301 301 301 303 301 300 302 304 305 309 310 310 311
265 265 268 271 271 267 267 256 259 261 267 259 264 255 260 249 265 255 273 281 287 288 296 297 297 299 301 303 301 301 301 305 306 308 311 312 311 311
267 269 266 266 268 271 260 265 261 254 262 261 250 260 247 252 241 256 267 275 277 292 295 298 301 303 304 301 300 303 305 306 308 310 312 313 313 313
265 267 266 265 265 268 259 258 264 262 273 261 261 247 253 247 252 263 269 272 289 292 294 299 300 301 300 300 301 304 307 308 311 314 314 315 314 315
267 269 264 264 256 267 259 258 256 259 265 247 246 244 241 247 262 264 268 282 289 285 295 296 300 303 303 303 305 308 310 313 315 317 317 317 317 318
266 269 262 256 262 258 255 261 261 253 263 242 234 232 248 256 265 267 272 285 281 287 292 294 300 301 304 308 310 313 317 320 323 325 324 324 324 325
265 265 264 253 251 260 260 259 260 253 260 258 253 251 257 260 263 273 278 279 284 285 290 295 298 306 309 313 317 322 326 327 330 334 336 334 338 329
262 265 264 258 257 257 259 257 257 233 280 266 257 259 263 240 253 256 266 273 276 285 289 296 305 308 313 316 322 327 332 336 340 345 351 359 350 332
256 257 259 257 258 264 255 251 241 259 271 262 258 253 232 248 247 255 257 267 274 282 291 299 305 311 315 321 327 331 337 344 351 2 12 10 16 43
256 254 256 256 260 254 239 243 247 252 251 257 231 231 239 235 231 237 250 261 272 283 293 300 305 313 319 325 329 336 343 345 355 18 30 20 41 66
255 250 247 248 256 254 230 242 250 255 253 228 229 236 230 216 215 220 237 256 273 287 295 304 313 322 328 337 337 341 338 332 347 37 39 35 41 67
252 246 245 241 243 238 246 251 245 232 227 227 218 201 195 204 205 215 233 253 272 292 301 313 325 336 343 343 343 342 333 315 290 79 58 37 44 49
246 242 249 238 235 239 241 240 229 223 216 214 194 184 190 197 206 214 229 260 279 288 308 329 341 338 347 349 339 332 327 303 256 229 103 15 35 50
234 236 245 238 226 233 236 223 214 207 210 197 174 185 187 190 197 210 242 253 274 307 334 333 336 356 1 344 332 346 342 289 200 193 164 124 68 62
227 224 245 216 222 221 211 205 203 204 195 166 176 184 181 186 189 205 209 242 291 346 354 356 16 25 7 352 7 31 40 68 110 123 121 129 122 106